Location: Wanzleben
(52.0609°N, 11.4408°E)
Time: 16:12:27
(UTC+00:00)

Envisat - Pass Details

Date: 02 December 2020
Orbit: 764 x 766 km, 98.1° (Epoch: 20 January)

Event Time Altitude Azimuth Distance (km) Brightness Sun altitude
Rises 06:18:19 0° 9° (N) 3,248 6.1 -6.5°
Reaches altitude 10° 06:20:46 10° 1° (N) 2,317 5.2 -6.2°
Maximum altitude 06:25:24 36° 296° (WNW) 1,199 3.5 -5.6°
Drops below altitude 10° 06:30:00 10° 231° (SW) 2,302 5.3 -5.0°
Sets 06:32:27 0° 223° (SW) 3,224 6.1 -4.6°
